Prairie Du Chien, WI

10:38 AM CDT on October 19, 2019 (GMT -0500)
Prairie Du Chien Municipal

Weather History for KPDC - September, 2019

Change the Weather History Date:

Monday, September 16, 2019

  Actual Average Record
Temperature  
Mean Temperature 74 °F -  
Max Temperature 84 °F 72 °F 95 °F (1955)
Min Temperature 63 °F 50 °F 35 °F (1966)
Cooling Degree Days 8    
Growing Degree Days 24 (Base 50)    
Moisture  
Dew Point 64 °F    
Average Humidity 80    
Maximum Humidity 97    
Minimum Humidity 43    
Precipitation  
Precipitation 0.01 in - - ()
Sea Level Pressure  
Sea Level Pressure 30.09 in    
Wind  
Wind Speed 2 mph (ESE)    
Max Wind Speed 8 mph    
Max Gust Speed -    
Visibility 6 miles    
Events Fog    
Averages and records for this station are not official NWS values.
T = Trace of Precipitation, MM = Missing Value Source: NWS Daily Summary

Daily Weather History Graph

Daily Weather History Graph

Search for Another Location

Airport or City:

Astronomy

Sep. 16, 2019 Rise Set
Actual Time 6:44 AM CDT 7:12 PM CDT
Civil Twilight 6:16 AM CDT 7:41 PM CDT
Nautical Twilight 5:42 AM CDT 8:14 PM CDT
Astronomical Twilight 5:08 AM CDT 8:49 PM CDT
Moon 8:44 PM CDT (9/16) 8:54 AM CDT (9/16)
Length of Visible Light 13h 24m
Length of Day
12h 28m
Waning Gibbous, 94% of the Moon is Illuminated
Sep 16
Waning Gibbous
Sep 21
Last Quarter
Sep 28
New
Oct 5
First Quarter
Oct 13
Full

Hourly Weather History & Observations

Time (CDT) Temp. Heat Index Dew Point Humidity Pressure Visibility Wind Dir Wind Speed Gust Speed Precip Events Conditions
12:15 AM 65.3 °F - 64.0 °F 96% 30.06 in 0.5 mi Calm Calm - N/A Fog Fog
12:35 AM 64.6 °F - 63.5 °F 96% 30.05 in 0.8 mi Calm Calm - N/A   Overcast
12:55 AM 64.6 °F - 63.5 °F 96% 30.06 in 0.5 mi Calm Calm - N/A Fog Fog
1:15 AM 64.8 °F - 63.7 °F 96% 30.06 in 0.2 mi Calm Calm - N/A Fog Fog
1:35 AM 64.6 °F - 63.5 °F 96% 30.06 in 0.2 mi East 3.5 mph - N/A Fog Fog
1:55 AM 64.4 °F - 63.5 °F 97% 30.07 in 0.2 mi Calm Calm - N/A Fog Fog
2:15 AM 64.6 °F - 63.5 °F 96% 30.07 in 0.2 mi Calm Calm - N/A Fog Fog
2:35 AM 64.6 °F - 63.5 °F 96% 30.07 in 0.5 mi Calm Calm - N/A Fog Fog
2:55 AM 64.8 °F - 63.7 °F 96% 30.07 in 0.5 mi ESE 3.5 mph - N/A Fog Fog
3:15 AM 64.8 °F - 63.7 °F 96% 30.07 in 0.5 mi East 3.5 mph - N/A Fog Fog
3:35 AM 64.9 °F - 63.9 °F 96% 30.07 in 0.5 mi Calm Calm - N/A Fog Fog
3:55 AM 64.9 °F - 63.9 °F 96% 30.08 in 0.5 mi Calm Calm - N/A Fog Fog
4:15 AM 64.6 °F - 63.5 °F 96% 30.08 in 0.2 mi Calm Calm - N/A Fog Fog
4:35 AM 64.4 °F - 63.5 °F 97% 30.09 in 0.5 mi Calm Calm - N/A Fog Fog
4:55 AM 64.4 °F - 63.5 °F 97% 30.09 in 0.5 mi Calm Calm - N/A Fog Fog
5:15 AM 64.4 °F - 63.5 °F 97% 30.09 in 0.5 mi Calm Calm - N/A Fog Fog
5:35 AM 64.4 °F - 63.5 °F 97% 30.09 in 0.5 mi Calm Calm - N/A Fog Fog
5:55 AM 64.6 °F - 63.5 °F 96% 30.09 in 0.5 mi Calm Calm - N/A Fog Fog
6:15 AM 64.4 °F - 63.5 °F 97% 30.10 in 0.2 mi Calm Calm - N/A Fog Fog
6:35 AM 64.4 °F - 63.5 °F 97% 30.11 in 0.2 mi Calm Calm - N/A Fog Fog
6:55 AM 64.4 °F - 63.1 °F 96% 30.12 in 0.2 mi Calm Calm - N/A Fog Fog
7:15 AM 64.0 °F - 63.0 °F 96% 30.12 in 0.2 mi Calm Calm - N/A Fog Fog
7:35 AM 63.9 °F - 62.8 °F 96% 30.12 in 0.2 mi Calm Calm - N/A Fog Fog
7:55 AM 64.0 °F - 63.0 °F 96% 30.12 in 0.5 mi Calm Calm - N/A Fog Fog
8:35 AM 64.0 °F - 63.0 °F 96% 30.14 in 0.5 mi Calm Calm - N/A Fog Fog
8:55 AM 64.6 °F - 63.5 °F 96% 30.14 in 0.8 mi Calm Calm - N/A   Overcast
9:15 AM 64.9 °F - 63.9 °F 96% 30.14 in 0.8 mi East 3.5 mph - N/A   Overcast
9:35 AM 66.0 °F - 64.9 °F 96% 30.14 in 2.0 mi Calm Calm - N/A   Overcast
9:55 AM 67.3 °F - 66.4 °F 97% 30.13 in 10.0 mi East 4.6 mph - N/A   Scattered Clouds
10:15 AM 68.2 °F - 67.1 °F 96% 30.13 in 10.0 mi Calm Calm - N/A   Scattered Clouds
10:35 AM 68.0 °F - 67.1 °F 97% 30.12 in 10.0 mi Calm Calm - N/A   Scattered Clouds
10:55 AM 69.6 °F - 68.4 °F 96% 30.12 in 10.0 mi Calm Calm - N/A   Clear
11:15 AM 71.8 °F - 70.7 °F 96% 30.12 in 10.0 mi Calm Calm - N/A   Clear
11:35 AM 77.9 °F - 65.7 °F 66% 30.11 in 10.0 mi ESE 6.9 mph - N/A   Clear
11:55 AM 79.3 °F - 64.2 °F 60% 30.11 in 10.0 mi ESE 5.8 mph - N/A   Clear
12:15 PM 80.1 °F 81.1 °F 61.3 °F 53% 30.11 in 10.0 mi SE 8.1 mph - N/A   Clear
12:35 PM 80.8 °F 81.8 °F 61.9 °F 52% 30.11 in 10.0 mi ESE 6.9 mph - N/A   Clear
12:55 PM 81.5 °F 82.2 °F 61.3 °F 50% 30.11 in 10.0 mi ESE 6.9 mph - 0.01 in   Clear
1:15 PM 81.9 °F 82.6 °F 61.5 °F 50% 30.10 in 10.0 mi SE 5.8 mph - N/A   Clear
1:35 PM 83.1 °F 83.3 °F 60.1 °F 46% 30.09 in 10.0 mi SE 6.9 mph - N/A   Clear
1:55 PM 82.4 °F 82.7 °F 60.4 °F 47% 30.09 in 10.0 mi SE 4.6 mph - N/A   Clear
2:15 PM 82.6 °F 83.2 °F 61.9 °F 49% 30.08 in 10.0 mi SE 5.8 mph - N/A   Clear
2:35 PM 83.3 °F 84.1 °F 62.2 °F 49% 30.08 in 10.0 mi SE 5.8 mph - N/A   Clear
2:55 PM 83.5 °F 83.7 °F 60.4 °F 46% 30.08 in 10.0 mi SSE 5.8 mph - N/A   Clear
3:15 PM 83.8 °F 84.1 °F 60.8 °F 46% 30.07 in 10.0 mi SE 6.9 mph - N/A   Clear
3:35 PM 84.0 °F 84.2 °F 60.8 °F 45% 30.07 in 10.0 mi SE 5.8 mph - N/A   Clear
3:55 PM 83.7 °F 83.9 °F 60.6 °F 46% 30.07 in 10.0 mi SE 6.9 mph - N/A   Clear
4:15 PM 84.2 °F 84.4 °F 61.0 °F 45% 30.06 in 10.0 mi SE 5.8 mph - N/A   Clear
4:35 PM 83.5 °F 83.4 °F 59.4 °F 44% 30.06 in 10.0 mi ESE 6.9 mph - N/A   Clear
4:55 PM 82.2 °F 82.0 °F 57.6 °F 43% 30.06 in 10.0 mi SE 5.8 mph - N/A   Clear
5:15 PM 81.3 °F 81.8 °F 59.9 °F 48% 30.06 in 10.0 mi ESE 4.6 mph - N/A   Clear
5:35 PM 79.5 °F - 61.7 °F 54% 30.06 in 10.0 mi ESE 4.6 mph - N/A   Clear
5:55 PM 78.3 °F - 63.5 °F 60% 30.06 in 10.0 mi ESE 3.5 mph - N/A   Clear
6:15 PM 77.5 °F - 64.8 °F 65% 30.06 in 10.0 mi Calm Calm - N/A   Clear
6:35 PM 76.6 °F - 65.3 °F 68% 30.06 in 10.0 mi Calm Calm - N/A   Clear
6:55 PM 75.0 °F - 65.5 °F 72% 30.06 in 10.0 mi Calm Calm - N/A   Clear
7:15 PM 73.4 °F - 65.7 °F 77% 30.06 in 10.0 mi Calm Calm - N/A   Clear
7:35 PM 72.7 °F - 65.7 °F 79% 30.06 in 10.0 mi Calm Calm - N/A   Clear
7:55 PM 71.6 °F - 65.7 °F 81% 30.06 in 10.0 mi ESE 3.5 mph - N/A   Clear
8:15 PM 70.7 °F - 65.3 °F 83% 30.06 in 10.0 mi ESE 3.5 mph - N/A   Clear
8:35 PM 71.1 °F - 64.9 °F 81% 30.07 in 10.0 mi East 3.5 mph - N/A   Clear
8:55 PM 69.8 °F - 65.7 °F 87% 30.07 in 10.0 mi East 3.5 mph - N/A   Clear
9:15 PM 69.1 °F - 65.5 °F 88% 30.08 in 10.0 mi ESE 3.5 mph - N/A   Clear
9:35 PM 69.6 °F - 65.3 °F 86% 30.09 in 10.0 mi ESE 3.5 mph - N/A   Clear
9:55 PM 68.0 °F - 65.8 °F 93% 30.09 in 10.0 mi Calm Calm - N/A   Clear
10:15 PM 67.1 °F - 65.3 °F 94% 30.09 in 10.0 mi ESE 4.6 mph - N/A   Clear
10:35 PM 67.5 °F - 64.9 °F 92% 30.09 in 10.0 mi ESE 4.6 mph - N/A   Clear
10:55 PM 67.3 °F - 64.8 °F 92% 30.09 in 10.0 mi East 5.8 mph - N/A   Clear
11:15 PM 67.3 °F - 64.8 °F 92% 30.09 in 10.0 mi East 4.6 mph - N/A   Clear
11:35 PM 67.3 °F - 64.8 °F 92% 30.09 in 10.0 mi Calm Calm - N/A   Clear
11:55 PM 66.7 °F - 64.8 °F 93% 30.09 in 10.0 mi Calm Calm - N/A   Clear